Volver al catálogo

STARLINK-4410

ActivoComunicacionesSSO
NORAD 53204·PAYLOAD·🇺🇸 United States

Lanzado Jul 22, 2022 desde Vandenberg Space Force Base

Loading…

Próximos Pases (próximas 24 horas)

TLE

ActualizadoSource: CelesTrak SupGP

Época: Sep 14, 2026, 20:48 UTC

1 53204C 22084R   26257.86715278 -.00052642  00000+0 -14609-2 0  2575
2 53204  97.4815 321.6099 0000795 139.9040  68.4521 15.36990895    19

Sigue STARLINK-4410 en tiempo real con AllMySat

Download on the App Store